SCP
0 0 0 0 0 0 -0 -0 -0 0 -0 0 0 0 0 0 0 0 0 0 0 0
0 0 0 0 0 0 0 -0 0 0 -0 -0 0 0 0 0 -0 0 0 0 0 0
0 0 0 0 0 0 0 -0 -0 -0 0 -0 -0 0 0 0 0 0 -0 0 0 0
0 0 0 0 0 0 0 0 -0 -0 -0 0 0 -0 0 0 0 0 0 0 0 0
0 0 0 0 0 0 0 0 0 0 -0 -0 -0 0 0 0 0 0 0 -0 -0 -0
0 0 0 0 0 0 0 0 0 0 0 0 -0 0 0 -0 0 -0 -0 -0 -0 -0
0 1 0 1 0 0 0 0 0 0 0 0 0 0 0 0 0 0 -0 -0 -0 -0
0 0 0 1 1 0 0 0 0 0 0 0 0 0 0 0 0 0 0 -0 0 0
0 0 0 0 0 0 0 0 1 0 0 0 0 0 0 0 0 0 0 0 0 0
0 0 0 0 0 0 0 0 0 0 0 0 0 0 0 0 0 0 0 0 0 0
1 0 0 0 0 0 0 0 1 0 0 1 0 0 0 0 0 1 0 1 0 0
1 1 0 0 1 0 0 0 0 0 0 0 0 0 0 0 0 0 1 1 1 0
0 0 0 0 1 1 1 0 0 0 0 0 0 0 0 0 0 0 0 0 1 0
0 0 0 0 1 1 1 1 1 0 0 0 0 0 0 0 1 0 0 0 0 0
Wind_Speed_500mb
54 50 53 48 41 35 30 22 18 20 17 15 14 17 12 22 23 18 14 14 10 6
64 53 53 55 51 43 38 29 25 21 20 19 16 13 18 16 22 21 18 19 19 15
66 58 50 51 57 55 44 40 35 30 26 23 20 21 17 20 22 25 26 24 25 23
73 67 57 52 52 58 53 48 44 39 33 30 26 24 23 19 21 24 22 26 29 31
80 75 69 57 53 54 60 53 51 45 40 36 35 31 29 25 20 18 20 22 27 28
80 83 78 69 59 57 56 60 57 54 48 42 39 40 38 34 31 29 27 25 28 27
76 81 81 77 69 62 61 61 63 62 57 50 45 45 44 39 34 30 34 34 31 33
74 76 79 82 80 71 67 65 65 68 67 60 56 53 52 47 42 37 32 36 31 29
65 65 66 69 76 80 77 72 70 71 74 74 70 65 60 55 51 47 41 40 38 34
53 57 60 64 68 71 75 76 77 76 74 78 80 77 70 63 60 57 54 51 47 46
53 55 52 57 61 67 67 69 73 76 79 78 81 84 82 76 71 69 65 60 55 53
47 48 53 59 61 59 65 67 70 72 74 79 79 80 84 82 83 84 82 76 71 68
43 46 52 53 52 57 60 66 67 73 76 76 79 78 77 80 85 90 89 88 86 82
14 27 42 50 52 54 53 55 61 69 74 76 78 79 80 80 80 82 85 90 89 92
Wind_Direction_500mb
236 238 234 236 233 226 222 216 210 208 207 205 216 220 211 210 212 222 228 231 249 246
233 237 239 237 236 236 230 218 212 210 215 220 228 228 224 219 215 224 241 245 244 244
234 235 240 241 238 236 231 226 217 216 223 227 230 235 237 229 225 234 238 245 246 244
238 235 237 241 239 235 237 231 227 224 230 237 237 231 231 232 236 239 245 243 243 244
240 242 237 240 239 238 236 235 231 231 228 234 235 229 228 231 238 251 258 256 251 248
244 242 242 239 242 239 237 234 234 231 234 232 229 226 226 233 242 248 255 263 258 257
244 247 244 243 241 244 240 238 235 234 237 236 232 230 228 231 235 249 254 252 259 255
251 251 248 244 243 242 245 243 240 239 237 239 239 235 232 234 241 247 254 245 249 253
249 250 251 250 246 245 245 246 246 242 241 240 241 241 238 239 241 243 248 250 249 248
246 245 247 248 246 245 245 246 247 248 245 244 242 242 243 240 243 246 249 249 249 252
243 245 247 247 247 247 245 244 246 248 249 247 247 245 244 245 246 249 249 249 250 252
242 244 246 247 247 248 245 243 244 245 247 247 247 247 246 246 246 250 253 253 252 254
261 257 249 249 250 251 248 245 245 245 245 247 247 246 246 247 246 249 253 257 258 258
332 272 261 259 259 256 253 247 245 244 244 245 244 244 244 245 245 245 250 254 255 259
Wind_Speed_850mb
54 50 53 48 41 35 30 22 18 20 17 15 14 17 12 22 23 18 14 14 10 6
64 53 53 55 51 43 38 29 25 21 20 19 16 13 18 16 22 21 18 19 19 15
66 58 50 51 57 55 44 40 35 30 26 23 20 21 17 20 22 25 26 24 25 23
73 67 57 52 52 58 53 48 44 39 33 30 26 24 23 19 21 24 22 26 29 31
80 75 69 57 53 54 60 53 51 45 40 36 35 31 29 25 20 18 20 22 27 28
80 83 78 69 59 57 56 60 57 54 48 42 39 40 38 34 31 29 27 25 28 27
76 81 81 77 69 62 61 61 63 62 57 50 45 45 44 39 34 30 34 34 31 33
74 76 79 82 80 71 67 65 65 68 67 60 56 53 52 47 42 37 32 36 31 29
65 65 66 69 76 80 77 72 70 71 74 74 70 65 60 55 51 47 41 40 38 34
53 57 60 64 68 71 75 76 77 76 74 78 80 77 70 63 60 57 54 51 47 46
53 55 52 57 61 67 67 69 73 76 79 78 81 84 82 76 71 69 65 60 55 53
47 48 53 59 61 59 65 67 70 72 74 79 79 80 84 82 83 84 82 76 71 68
43 46 52 53 52 57 60 66 67 73 76 76 79 78 77 80 85 90 89 88 86 82
14 27 42 50 52 54 53 55 61 69 74 76 78 79 80 80 80 82 85 90 89 92
Wind_Direction_850mb
236 238 234 236 233 226 222 216 210 208 207 205 216 220 211 210 212 222 228 231 249 246
233 237 239 237 236 236 230 218 212 210 215 220 228 228 224 219 215 224 241 245 244 244
234 235 240 241 238 236 231 226 217 216 223 227 230 235 237 229 225 234 238 245 246 244
238 235 237 241 239 235 237 231 227 224 230 237 237 231 231 232 236 239 245 243 243 244
240 242 237 240 239 238 236 235 231 231 228 234 235 229 228 231 238 251 258 256 251 248
244 242 242 239 242 239 237 234 234 231 234 232 229 226 226 233 242 248 255 263 258 257
244 247 244 243 241 244 240 238 235 234 237 236 232 230 228 231 235 249 254 252 259 255
251 251 248 244 243 242 245 243 240 239 237 239 239 235 232 234 241 247 254 245 249 253
249 250 251 250 246 245 245 246 246 242 241 240 241 241 238 239 241 243 248 250 249 248
246 245 247 248 246 245 245 246 247 248 245 244 242 242 243 240 243 246 249 249 249 252
243 245 247 247 247 247 245 244 246 248 249 247 247 245 244 245 246 249 249 249 250 252
242 244 246 247 247 248 245 243 244 245 247 247 247 247 246 246 246 250 253 253 252 254
261 257 249 249 250 251 248 245 245 245 245 247 247 246 246 247 246 249 253 257 258 258
332 272 261 259 259 256 253 247 245 244 244 245 244 244 244 245 245 245 250 254 255 259